Location: Street
(51.1247°N, 2.7429°W)
Time: 16:09:36
(UTC+00:00)

SR - Pass Details

Date: 02 December 2020
Orbit: 575 x 880 km, 66.7° (Epoch: 26 January)

Event Time Altitude Azimuth Distance (km) Brightness Sun altitude
Rises 00:45:59 0° 323° (NW) 3,109 - -59.5°
Reaches altitude 10° 00:48:28 10° 333° (NNW) 2,239 - -59.4°
Maximum altitude 00:53:08 34° 38° (NE) 1,266 - -59.1°
Drops below altitude 10° 00:58:09 10° 102° (ESE) 2,410 - -58.8°
Sets 01:00:54 0° 112° (ESE) 3,382 - -58.6°
